Regional Weather Roundup
Issued by NWS Charleston, SC

Current Version | Previous Version | Text Only | Print | Product List | Glossary Off
Versions: 1 2 3 4 5 6 7 8 9 10 11 12 13 14 15 16 17 18 19 20 21 22 23 24 25 26 27 28 29 30 31 32 33 34 35 36 37 38 39 40 41 42 43 44 45 46 47 48 49 50
000 ASUS42 KCHS 210612 RWRCHS REGIONAL WEATHER ROUNDUP NATIONAL WEATHER SERVICE CHARLESTON SC 100 AM EST TUE NOV 21 2017 NOTE: "FAIR" INDICATES FEW OR NO CLOUDS BELOW 12,000 FEET WITH NO SIGNIFICANT WEATHER AND/OR OBSTRUCTIONS TO VISIBILITY. NOT ALL STATIONS ARE QUALITY CONTROLLED. USE DATA WITH CAUTION... ESPECIALLY DEWPOINT OBSERVATIONS. SCZ027-030-031-034>040-042>050-210700- ...SOUTHEAST SOUTH CAROLINA... CITY SKY/WX TMP DP RH WIND PRES REMARKS N CHARLESTON PTCLDY 46 42 86 NE8 30.21F 6HR MIN TEMP: 41; 6HR MAX TEMP: 51; WATERFRONT PRK NOT AVBL JOHNS ISLAND FAIR 48 46 93 N6 30.20F PINOPOLIS N/A 48 43 81 CALM 30.15F MONCKS CORNER FAIR 37 36 93 CALM 30.22F SUMMERVILLE FAIR 37 36 93 N3 30.23S BEAUFORT MCAS CLEAR 52 47 83 NE8 30.19F 6HR MIN TEMP: 45; 6HR MAX TEMP: 53; BEAUFORT ARPT FAIR 52 46 82 NE7 30.19S HILTON HEAD IS CLEAR 54 48 82 NE8 30.19F WALTERBORO CLEAR 39 36 87 NE3 30.21F ALLENDALE FAIR 39 37 93 CALM 30.20S ...SOUTHERN MIDLANDS AND PEE DEE... CITY SKY/WX TMP DP RH WIND PRES REMARKS GEORGETOWN FAIR 36 34 93 CALM 30.24F KINGSTREE FAIR 32 32 100 CALM 30.24F ORANGEBURG CLEAR 37 35 92 CALM 30.22F 6HR MIN TEMP: 37; 6HR MAX TEMP: 44; BARNWELL N/A 43 37 81 CALM 30.21S AIKEN FAIR 34 32 93 N3 30.25S MANNING FAIR 34 34 100 MISG 30.24S COLUMBIA CLOUDY 37 34 89 CALM 30.23F 6HR MIN TEMP: 35; 6HR MAX TEMP: 48; SUMTER CLEAR 33 29 87 NE5 30.22S WCI 28 6HR MIN TEMP: 33; 6HR MAX TEMP: 45; FLORENCE CLOUDY 35 32 88 CALM 30.25S 6HR MIN TEMP: 35; 6HR MAX TEMP: 44; MYRTLE BEACH CLEAR 40 37 89 CALM 30.25F N MYRTLE BEACH CLEAR 38 37 97 CALM 30.25S 6HR MIN TEMP: 37; 6HR MAX TEMP: 44; $$ GAZ063-065-086>088-099>101-113>116-118-119-134>141-150-210700- ...SOUTHEAST GEORGIA... CITY SKY/WX TMP DP RH WIND PRES REMARKS SAVANNAH ARPT MOCLDY 50 45 83 N5 30.19S 6HR MIN TEMP: 49; 6HR MAX TEMP: 52; HUNTER AAF PTCLDY 53 47 82 NE5 30.15F 6HR MIN TEMP: 51; 6HR MAX TEMP: 53; FORT STEWART CLOUDY 53 47 81 NE5 30.16F 6HR MIN TEMP: 48; 6HR MAX TEMP: 53; STATESBORO PTCLDY 42 36 79 CALM 30.19F SYLVANIA PTCLDY 47 39 72 SE3 30.20F CLAXTON MOCLDY 45 43 94 CALM 30.19F ...CSRA...CENTRAL AND FAR SOUTHEAST GEORGIA... CITY SKY/WX TMP DP RH WIND PRES REMARKS THOMSON CLOUDY 39 36 89 CALM 30.26S AUGUSTA-BUSH PTCLDY 37 35 92 CALM 30.22R 6HR MIN TEMP: 37; 6HR MAX TEMP: 45; AUGUSTA-DANIEL PTCLDY 47 35 63 E5 30.22S SWAINSBORO CLOUDY 48 37 66 E3 30.20S VIDALIA CLOUDY 52 45 76 E7 30.18F EASTMAN CLOUDY 53 40 61 SE5 30.20S HAZLEHURST CLOUDY 54 42 63 CALM 30.17S ALMA CLOUDY 55 48 77 NE3 30.16F 6HR MIN TEMP: 54; 6HR MAX TEMP: 60; WAYCROSS CLOUDY 56 51 84 NE3 30.16S JESUP CLOUDY 55 50 82 CALM 30.16F BAXLEY CLOUDY 52 48 87 NE3 30.17S BRUNSWICK CLOUDY 55 52 88 CALM 30.16S SAINT SIMONS CLOUDY 67 58 72 E6 30.14S 6HR MIN TEMP: 60; 6HR MAX TEMP: 67; $$ SCZ027-028-034-036>038-045-046-048>050-GAZ119-141-210700- ...LAKE AND SUPPLEMENTAL COASTAL OBSERVATIONS... STATION/POSITION TIME TEMP WIND PRES WAVE SWELL AIR SEA DIR/SP/G HT/PER HT/PER/DIR (UTC) (F) (DEG/KT/KT) (MB) (FT/S) (FT/S/D) WINYAH BAY 0445 41 320/ 2 1024.0 LAKE MURRAY 0520 49 100/ 3/ 5 1023.0 ACE BASIN NERRS 0445 47 10/ 1 1023.0 FORT PULASKI 0548 57 61 40/ 8/ 10 1021.9F SAPELO ISLAND 0500 62 30/ 3 1021.0 $$ ANZ835-935-AMZ111-154-330-350-352-354-370-450-454-472-210700- ...C-MAN AND BUOY OBSERVATIONS... STATION/POSITION TIME TEMP WIND PRES WAVE SWELL AIR SEA DIR/SP/G HT/PER HT/PER/DIR (UTC) (F) (DEG/KT/KT) (MB) (FT/S) (FT/S/D) BUOY 41004 0550 69 73 120/ 12/ 16 1022.1F 3/ 7 2/100/ 7 BUOY 41008 0550 69 67 110/ 14/ 16 1020.6F 4/ 5 2/ 80/ 7 FOLLY BEACH CMAN 0600 56 30/ 10/ 11 1022.8F CAPERS NEARSHORE 0508 58 62 70/ 12/ 17 1022.7F FRIPP NEARSHORE 0508 59 62 60/ 12/ 19 1021.7F STATION/POSITION TIME TEMP WIND PRES WAVE SWELL AIR SEA DIR/SP/G HT/PER HT/PER/DIR (UTC) (F) (DEG/KT/KT) (MB) (FT/S) (FT/S/D) 5E ST. MARYS GA 0530 67 N/A 4/ 5 FRYING PAN BUOY 0550 63 69 100/ 4/ 8 1023.5F 2/10 2/100/10 BUOY 41025 0550 61 75 260/ 4/ 12 1024.8F 3/ 8 3/ 60/ 8 CAPE LOOKOUT NC 0500 360/ 3/ 3 1025.0F BUOY 41002 0550 69 76 110/ 14/ 16 1023.4F 5/ 9 3/ 10/ 9 BUOY 41010 NOT AVBL ST AUGUSTINE FL 0600 71 67 120/ 14/ 16 1019.8F $$

USA.gov is the U.S. government's official web portal to all federal, state and local government web resources and services.